Simultaneous Nadir Overpasses (SNOs) Predictions

Prediction of SNOs between LANDSAT-8 and NOAA-19 Satellite Orbit:

Table of predicted SNOs for the next 14.0 days since TLE Epoch: 8/4/2017
Index Date (LANDSAT-8) Time (LANDSAT-8) Lat,Lon (LANDSAT-8) SZA (LANDSAT-8 ) Date (NOAA-19) Time (NOAA-19) Lat,Lon (NOAA-19) SZA (NOAA-19 ) Distance(km) Time Diff (sec)
1 08/06/2017 07:21:04 76.47, 79.48 59.94 08/06/2017 07:19:51 76.44, 79.53 59.90 3.25 73
2 08/06/2017 08:10:33 -76.39,-113.13 120.14 08/06/2017 08:10:46 -76.41,-113.07 120.12 2.34 13
3 08/08/2017 12:54:49 -76.51, 176.17 119.40 08/08/2017 12:53:36 -76.55, 175.72 119.38 12.61 73
4 08/08/2017 13:44:17 76.39, -16.57 60.49 08/08/2017 13:44:38 76.41, -16.48 60.51 3.07 21
5 08/10/2017 18:28:33 76.50, -87.28 61.25 08/10/2017 18:27:26 76.49, -87.42 61.23 3.98 67
6 08/10/2017 19:18:02 -76.43, 80.12 118.82 08/10/2017 19:18:21 -76.42, 80.13 118.83 1.73 19
7 08/13/2017 00:02:19 -76.49, 9.25 118.09 08/13/2017 00:01:09 -76.48, 9.26 118.11 1.62 70
8 08/13/2017 00:51:46 76.42, 176.65 61.85 08/13/2017 00:52:12 76.42, 176.71 61.85 1.59 26
9 08/15/2017 05:36:03 76.48, 105.77 62.59 08/15/2017 05:35:00 76.51, 105.74 62.61 3.81 63
10 08/15/2017 06:25:31 -76.46, -86.65 117.42 08/15/2017 06:25:56 -76.43, -86.69 117.45 3.25 25
11 08/17/2017 11:09:48 -76.51,-157.54 116.66 08/17/2017 11:08:44 -76.50,-157.58 116.69 2.26 64




NCC Satellite Simultaneous Nadir Overpasses (SNOs) Prediction Service
